Temp
10 10 9 8 8 7 6 5 5 4 4 4 2 1 1 0 -0 -0 -0 -1 -1 -1
9 9 9 8 8 7 6 5 4 4 3 2 1 0 0 -0 -1 -1 -1 -1 -1 -3
9 8 8 8 7 6 5 5 4 2 1 0 0 0 -0 -1 -1 -2 -2 -2 -2 -3
8 8 8 7 6 5 4 3 2 1 1 0 -0 -1 -1 -2 -2 -3 -3 -3 -4 -4
7 7 7 5 4 3 3 2 1 0 -0 -1 -2 -2 -3 -3 -4 -4 -5 -5 -5 -5
6 5 5 3 3 2 1 1 -0 -1 -2 -3 -3 -4 -4 -4 -5 -5 -6 -6 -7 -7
4 4 3 2 1 1 -0 -1 -2 -3 -3 -4 -4 -5 -5 -6 -6 -6 -7 -7 -8 -8
3 3 2 1 -0 -1 -2 -2 -3 -4 -5 -5 -5 -6 -6 -6 -7 -7 -8 -8 -8 -8
2 1 -0 -1 -2 -2 -3 -4 -5 -5 -5 -6 -6 -6 -7 -7 -7 -8 -9 -9 -9 -9
0 -1 -1 -2 -3 -4 -5 -5 -6 -6 -6 -6 -7 -7 -7 -8 -8 -9 -10 -10 -10 -10
-1 -2 -3 -3 -4 -5 -6 -6 -6 -6 -7 -7 -7 -8 -8 -8 -9 -9 -10 -10 -10 -11
-2 -3 -4 -5 -5 -6 -6 -6 -7 -7 -7 -8 -8 -9 -9 -9 -9 -9 -9 -10 -11 -12
-3 -5 -5 -5 -6 -7 -7 -7 -7 -7 -8 -9 -9 -9 -9 -10 -10 -10 -10 -10 -11 -12
-4 -5 -6 -6 -7 -7 -7 -7 -8 -8 -9 -9 -9 -10 -10 -11 -11 -11 -11 -11 -11 -11
Height
1585 1587 1586 1585 1584 1584 1583 1582 1581 1580 1578 1576 1574 1571 1569 1567 1564 1562 1560 1557 1555 1552
1581 1583 1584 1583 1583 1583 1581 1580 1579 1578 1576 1574 1572 1569 1566 1563 1561 1558 1555 1552 1549 1547
1577 1579 1581 1582 1582 1581 1581 1580 1578 1576 1573 1571 1567 1564 1561 1558 1555 1553 1550 1547 1545 1542
1575 1577 1578 1579 1579 1578 1578 1576 1574 1572 1569 1567 1564 1559 1557 1554 1551 1548 1546 1544 1540 1537
1573 1574 1576 1577 1576 1575 1575 1573 1571 1569 1566 1563 1559 1555 1553 1550 1547 1544 1542 1538 1534 1530
1573 1573 1572 1575 1575 1574 1572 1570 1568 1565 1562 1558 1555 1553 1550 1547 1544 1541 1538 1534 1529 1526
1572 1573 1573 1574 1573 1571 1569 1566 1564 1561 1558 1555 1552 1550 1547 1544 1541 1538 1534 1531 1527 1524
1572 1573 1573 1572 1569 1568 1566 1564 1561 1558 1556 1553 1550 1547 1544 1541 1538 1534 1531 1527 1524 1521
1572 1572 1571 1570 1568 1566 1564 1561 1558 1556 1553 1550 1547 1544 1541 1538 1534 1531 1527 1523 1519 1516
1571 1570 1569 1568 1566 1563 1561 1559 1557 1554 1551 1547 1544 1541 1538 1535 1531 1527 1522 1518 1514 1511
1570 1569 1567 1566 1564 1562 1560 1558 1555 1553 1548 1545 1541 1537 1534 1531 1527 1522 1518 1514 1509 1506
1569 1567 1566 1564 1562 1560 1558 1556 1553 1551 1547 1543 1540 1535 1531 1527 1523 1519 1514 1510 1506 1503
1567 1565 1564 1562 1561 1559 1556 1554 1552 1550 1547 1543 1539 1535 1530 1525 1521 1515 1510 1506 1502 1499
1566 1564 1563 1561 1560 1557 1555 1553 1550 1547 1544 1541 1538 1533 1529 1525 1519 1513 1508 1504 1500 1497
Wind_Speed
13 10 4 4 7 9 8 5 9 14 19 21 21 21 19 19 19 19 20 22 23 23
16 14 11 14 15 9 7 10 12 16 20 19 18 17 15 13 13 15 17 19 18 18
16 15 15 14 12 11 13 14 16 17 13 11 12 15 17 19 20 20 20 20 19 15
18 13 14 16 14 14 13 14 15 13 15 17 19 21 22 23 24 23 21 22 25 27
14 13 12 11 11 12 14 15 15 17 20 22 21 21 22 22 22 22 26 32 36 37
7 7 8 9 10 12 14 16 18 20 20 20 20 20 21 21 23 28 32 34 26 19
3 5 6 8 11 14 15 17 18 18 17 19 20 19 19 23 26 29 29 21 18 19
2 4 7 10 11 13 16 18 18 17 17 16 16 17 20 23 28 28 27 19 19 17
3 6 8 10 12 15 18 16 15 14 14 15 16 19 22 26 26 27 25 23 22 20
3 7 9 12 14 15 14 13 12 13 15 17 18 20 21 23 27 29 27 21 22 22
6 8 11 13 12 11 11 11 12 13 13 15 19 19 25 29 32 30 26 24 21 18
9 10 10 12 10 11 12 11 12 11 15 16 18 24 29 33 31 28 27 23 20 19
10 6 10 11 10 11 10 11 12 14 14 14 18 23 29 27 28 31 28 26 24 22
8 6 9 11 10 10 12 15 17 17 11 15 19 19 21 25 30 26 26 26 23 20
Wind_Direction
214 223 236 229 240 234 240 225 268 289 301 311 323 329 332 329 327 328 326 323 316 308
213 220 220 234 243 214 248 267 281 295 308 318 331 336 327 322 319 313 308 310 308 307
200 210 225 243 250 262 271 277 293 308 321 319 306 301 304 307 306 306 302 303 304 304
189 207 230 253 264 273 285 292 297 298 296 298 303 304 308 311 311 309 309 308 310 312
187 214 246 260 265 278 293 297 296 295 299 305 307 311 316 317 313 319 324 322 321 317
203 244 256 262 281 292 294 296 303 311 313 313 315 320 318 314 327 332 330 330 333 348
212 256 271 286 297 301 308 315 320 319 317 319 325 324 319 327 333 332 338 345 337 345
234 282 297 307 311 315 317 319 322 320 326 332 331 325 325 333 333 338 341 339 330 327
269 295 319 320 315 316 321 332 338 348 345 340 335 330 329 329 334 337 338 329 319 310
318 318 324 321 321 330 340 348 359 352 349 345 337 330 329 329 331 336 335 323 321 317
333 331 325 326 337 343 353 3 353 357 350 343 337 333 327 329 335 339 339 333 331 334
330 336 330 341 353 358 357 351 349 339 341 343 340 335 332 331 335 340 341 345 347 344
335 344 333 348 1 360 355 339 331 332 332 326 324 323 322 331 341 342 345 348 348 346
340 331 347 359 10 347 330 328 334 331 323 322 324 329 329 342 339 343 346 352 358 5